Location: Island Grove Observatory.
(44.2333°N, 79.4500°W)
Time: 11:27:50
(UTC-05:00)

Tiangong - Visible Passes

Search period start: 03 December 2021 00:00
Search period end: 13 December 2021 00:00
Orbit: 380 x 384 km, 41.5° (Epoch: 02 December)

Date Brightness Start Highest point End Pass type
(mag) Time Alt. Az. Time Alt. Az. Time Alt. Az.
08 Dec 3.1 18:37:06 10° SSW 18:38:51 19° S 18:38:51 19° S visible
09 Dec 3.5 17:37:31 10° S 17:39:16 14° SSE 17:41:01 10° ESE visible
09 Dec 3.9 19:12:35 10° WSW 19:13:26 16° SW 19:13:26 16° SW visible
10 Dec 2.3 18:12:19 10° SW 18:15:07 29° SSE 18:15:48 26° SE visible
11 Dec 3.0 17:12:16 10° SSW 17:14:43 21° SSE 17:17:10 10° ESE visible
11 Dec 2.5 18:48:04 10° WSW 18:50:16 35° SW 18:50:16 35° SW visible
12 Dec 2.1 17:47:39 10° WSW 17:50:37 38° SSE 17:52:34 18° ESE visible
12 Dec 4.3 19:24:06 10° W 19:24:43 15° WSW 19:24:43 15° WSW visible
